ZSFZ

Fuzhou Changle International

Airport
ICAO code
ZSFZ
IATA Code
FOC
Summary
ICAO Region
APAC
ICAO Territory
Location

Changle, Fujian

Serving
Fuzhou
Elevation
46 ft
Coordinates
25° 56' 6" N , 119° 39' 48" E
KCC
Metar
ZSFZ 242100Z 03003MPS 9999 FEW007 SCT015 25/24 Q1010 NOSIG

Description

Fuzhou Changle International Airport is an airport serving Fuzhou, the capital of Fujian province, China. The airport is located near the shore of the Taiwan Strait in Zhanggang Subdistrict, Changle, about 50 km east of Fuzhou's city center.

Climatology

Within the Köppen Climate Classification System, ((Koppen climate classification Cwa)) this climate type generally has warm and humid summers with mild winters. Its extent is from 30 to 50° of latitude mainly on the eastern and western borders of most continents. During the winter, the main weather feature is the mid-latitude cyclone. Convective thunderstorms provide precipitation in the summer months.

Airport map

Aerial View

SKYbrary Partners:

Safety knowledge contributed by: